Simultaneous Nadir Overpasses (SNOs) Predictions

Prediction of SNOs between METOP-B and NOAA-19 Satellite Orbit:

Table of predicted SNOs for the next 14.0 days since TLE Epoch: 5/24/2019
Index Date (METOP-B) Time (METOP-B) Lat,Lon (METOP-B) SZA (METOP-B ) Date (NOAA-19) Time (NOAA-19) Lat,Lon (NOAA-19) SZA (NOAA-19 ) Distance(km) Time Diff (sec)
1 06/02/2019 08:12:19 79.25, 72.66 57.50 06/02/2019 08:11:07 79.28, 72.67 57.51 3.07 72
2 06/02/2019 09:03:00 -79.28,-119.80 122.47 06/02/2019 09:02:08 -79.25,-119.82 122.51 3.60 52
3 06/02/2019 09:53:40 79.27, 47.47 57.52 06/02/2019 09:53:07 79.25, 47.39 57.49 2.66 33
4 06/02/2019 10:44:22 -79.27,-145.25 122.50 06/02/2019 10:44:09 -79.25,-145.35 122.52 2.72 13
5 06/02/2019 11:35:01 79.26, 22.03 57.49 06/02/2019 11:35:07 79.26, 21.85 57.48 3.67 6
6 06/02/2019 12:25:43 -79.25,-170.69 122.53 06/02/2019 12:26:08 -79.23,-170.62 122.54 3.28 25
7 06/02/2019 13:16:23 79.24, -3.42 57.46 06/02/2019 13:17:07 79.23, -3.42 57.46 1.35 44
8 06/02/2019 14:07:05 -79.24, 163.87 122.55 06/02/2019 14:08:09 -79.23, 163.84 122.55 1.10 64




NCC Satellite Simultaneous Nadir Overpasses (SNOs) Prediction Service
